Home > Weather > Nashville > Past weeks

Flag for USA Weather for the Past 2 Weeks in Nashville, Tennessee, USA

Now
70 °F

Passing clouds.


Feels Like: 70 °F
Forecast: 59 / 71 °F
Wind: No wind

Location: Nashville International Airport

Current Time: May 1, 2016 at 8:25:24 PM

Latest Report: May 1, 2016 at 7:53 PM


Visibility: 10 mi

Pressure: 29.93 "Hg

Humidity: 81%

Dew Point: 64 °F

Location of NashvilleLocation

Historic Weather in Nashville — Graph

°F

Nashville Temperature Yesterday

Maximum temperature yesterday: 75 °F (at 1:53 PM)
Minimum temperature yesterday: 64 °F (at 4:53 AM)
Average temperature yesterday: 68 °F

High & Low Weather Summary for the Past Weeks

 TemperatureHumidityPressure
High86 °F (Apr 26, 2:53 PM)94% (May 1, 1:53 AM)30.38 "Hg (May 1, 1:53 AM)
Low49 °F (Apr 24, 5:53 AM)20% (Apr 18, 3:53 PM)29.72 "Hg (Apr 27, 3:53 PM)
Average69 °F60%30.00 "Hg
* Reported Apr 16 6:53 PM — May 1 6:53 PM, Nashville, Weather by CustomWeather, © 2016

Note: Actual official high and low records may vary slightly from our data, if they occured in-between our weather recording intervals... More about our weather records

Advertising

Nashville Weather History for the Previous 24 Hours

Scroll right to see more
 ConditionsComfort  
Time TempWeatherWind HumidityBarometerVisibility
6:53 PM
Sun, May 1
73 °FBroken clouds.No wind71%29.94 "Hg10 mi
5:53 PM77 °FThunderstorms. Broken clouds.3 mph62%29.93 "Hg10 mi
4:53 PM81 °FBroken clouds.7 mph53%29.91 "Hg10 mi
3:53 PM82 °FBroken clouds.13 mph49%29.92 "Hg10 mi
2:53 PM82 °FBroken clouds.7 mph51%29.91 "Hg10 mi
1:53 PM81 °FBroken clouds.9 mph54%29.93 "Hg10 mi
12:53 PM79 °FBroken clouds.13 mph58%29.94 "Hg10 mi
11:53 AM77 °FPassing clouds.10 mph62%29.95 "Hg10 mi
11:03 AM73 °FPartly sunny.7 mph69%29.97 "Hg10 mi
9:53 AM72 °FMostly cloudy.7 mph76%29.96 "Hg10 mi
8:53 AM69 °FPartly sunny.8 mph81%29.95 "Hg10 mi
7:53 AM68 °FOvercast.6 mph84%29.95 "Hg10 mi
6:53 AM65 °FFog.6 mph91%29.93 "Hg6 mi
5:53 AM65 °FScattered clouds.3 mph91%29.92 "Hg10 mi
4:53 AM66 °FPassing clouds.No wind87%29.90 "Hg10 mi
3:53 AM64 °FFog.No wind90%29.89 "Hg6 mi
2:53 AM64 °FFog.5 mph94%29.88 "Hg5 mi
1:53 AM64 °FFog.5 mph94%29.88 "Hg4 mi
12:53 AM66 °FFog.No wind93%29.90 "Hg5 mi
11:53 PM
Sat, Apr 30
68 °FPassing clouds.No wind87%29.89 "Hg10 mi
10:53 PM67 °FPartly cloudy.3 mph90%29.88 "Hg8 mi
9:53 PM68 °FPartly cloudy.5 mph87%29.88 "Hg10 mi
8:53 PM68 °FMostly cloudy.5 mph90%29.88 "Hg9 mi
Weather by CustomWeather, © 2016

See weather overviewHow to use our weather pages